GFSWCAN_2pvu_pres_276.txt.gz
Presure
227 240 249 254 251 237 241 256 253 235 225 228 224 191 221 235 184 194 215 219 157 220 186 219 221 177 208 209 204 219 215 219 210 218 217 224 255 220 235 253 278 218 261 198 266 260 248 326 316 311 318 296 258 248
275 223 238 233 236 243 247 246 243 253 256 233 229 232 227 222 218 220 212 229 185 219 213 233 216 225 231 224 222 212 202 207 219 209 221 249 250 248 250 274 270 256 258 263 252 237 300 300 300 290 307 78 296 306
260 256 273 269 244 266 242 243 246 250 254 254 251 244 238 229 222 222 220 158 221 203 215 236 175 223 177 223 221 212 215 217 217 238 252 265 256 256 268 269 254 254 263 246 231 299 172 285 314 306 355 394 389 348
259 253 269 267 262 246 266 295 275 236 250 263 263 264 254 257 247 243 243 244 198 233 230 235 231 226 208 192 190 228 212 216 233 224 238 263 158 260 254 248 255 261 243 263 283 278 278 294 330 426 478 243 460 452
274 270 269 257 234 265 277 231 267 278 259 264 252 251 247 247 248 244 251 250 249 253 274 199 228 243 247 226 234 249 241 245 246 254 272 248 237 240 244 251 262 235 231 305 271 281 284 290 342 481 415 419 447 469
269 296 275 257 243 265 232 266 269 281 279 249 251 252 242 268 244 298 303 301 291 275 291 288 292 306 282 283 182 257 261 261 269 263 266 252 237 244 247 255 234 225 316 271 268 268 278 293 318 405 416 411 444 451
270 268 261 272 266 259 243 262 260 263 240 276 243 281 244 282 271 285 280 277 278 288 290 288 279 138 167 282 274 275 256 257 237 245 241 237 240 243 253 237 222 325 299 267 261 269 294 258 294 325 456 413 430 432
298 280 271 274 249 277 263 258 249 261 258 263 271 275 249 253 282 276 279 213 274 273 271 172 187 262 255 255 252 249 243 249 243 240 235 234 239 251 235 220 206 313 271 274 261 253 272 245 267 302 337 431 392 367
347 328 269 281 269 249 264 271 257 259 248 260 260 263 254 265 270 281 275 269 266 264 257 253 248 241 248 248 241 240 231 244 244 236 231 232 248 238 218 145 327 300 267 258 253 250 257 248 236 283 306 278 448 334
379 342 296 343 265 271 288 261 275 278 262 256 239 248 264 263 256 259 255 262 257 246 248 243 249 248 241 244 244 244 248 244 234 228 228 239 238 222 222 297 329 303 259 248 248 256 265 245 246 276 286 309 344 372
344 376 394 304 335 271 265 279 273 243 271 256 263 279 258 233 265 261 258 232 247 246 248 252 250 248 243 242 244 250 242 235 227 226 235 235 225 213 259 309 323 299 260 250 247 252 246 236 237 268 236 276 287 299
330 344 365 393 348 327 292 267 268 270 256 269 256 264 282 259 229 250 248 246 241 244 242 246 246 252 242 240 252 241 234 228 227 229 233 227 212 252 313 295 323 274 279 260 246 251 243 257 253 234 257 222 247 275
343 325 346 353 409 349 344 288 318 263 253 267 270 256 278 266 286 256 247 243 246 243 244 242 245 254 250 245 241 231 227 226 232 230 221 211 292 316 310 309 342 273 269 265 246 248 229 238 242 243 253 236 262 249
356 331 326 340 348 396 345 300 279 283 270 249 284 276 292 274 285 239 247 220 249 242 246 248 247 251 243 241 232 226 225 224 227 220 212 215 319 310 311 301 342 277 256 281 258 250 241 260 249 246 229 259 235 260
371 342 320 333 331 351 387 366 320 316 291 284 273 288 269 265 267 273 254 240 233 247 248 250 244 243 246 229 226 225 221 229 217 209 208 327 306 296 312 337 281 313 305 262 262 272 248 245 254 246 234 255 240 226
351 355 326 318 328 330 343 373 390 334 289 297 301 306 301 274 263 269 253 244 234 237 247 243 244 239 229 223 223 219 226 214 208 210 235 324 314 305 296 300 295 308 312 292 257 248 267 261 248 250 239 245 237 241
322 362 333 315 324 327 330 344 367 386 306 295 300 308 265 298 281 247 261 245 244 245 243 239 240 233 222 219 219 220 218 206 203 231 242 259 272 299 305 312 327 316 313 325 327 323 319 261 253 240 262 255 252 245
287 372 341 318 320 324 332 344 352 366 385 331 298 300 279 251 262 260 261 248 243 239 238 238 232 225 217 220 219 222 210 197 206 191 229 235 243 251 265 286 314 313 314 304 299 301 311 315 309 273 270 262 259 243
283 373 344 326 319 328 337 349 356 370 395 391 397 288 290 277 281 262 252 238 240 239 234 230 220 221 222 216 222 218 208 207 200 208 219 221 229 235 238 244 249 259 280 315 311 308 304 296 292 292 295 301 303 289
326 372 347 331 322 327 347 357 363 379 390 407 416 257 281 249 283 251 255 249 238 233 233 222 220 218 219 219 220 212 201 208 192 215 209 219 220 221 223 226 227 231 242 249 254 269 286 310 305 300 298 293 293 282
422 372 347 336 328 333 353 365 367 381 387 399 359 298 279 282 189 244 246 247 244 235 221 221 220 221 220 219 221 211 202 198 200 202 202 210 214 212 218 218 216 222 223 224 230 243 248 267 282 324 311 310 307 295
422 377 349 337 327 341 359 358 356 361 378 329 285 278 293 229 239 245 246 240 235 229 224 223 219 222 217 222 217 210 203 194 202 192 191 205 207 205 209 216 223 218 221 225 224 220 224 243 253 281 294 309 313 302
454 378 351 339 332 351 365 348 356 348 347 354 302 286 277 263 243 252 189 232 222 221 222 225 225 220 215 222 216 211 204 193 200 196 193 199 203 204 179 194 203 205 210 214 217 224 232 229 229 250 278 292 294 311
477 382 356 343 339 357 356 346 345 334 339 311 285 284 278 255 251 231 220 221 219 222 229 219 217 219 217 222 219 212 206 194 197 192 200 198 202 199 205 205 210 205 204 206 210 208 212 220 233 232 247 281 284 292
481 395 371 345 343 365 348 347 348 328 300 289 288 278 271 257 256 232 231 222 229 225 224 215 216 216 217 226 220 214 207 201 196 198 191 202 203 195 194 207 201 202 203 206 204 205 210 211 214 224 235 239 263 280
495 405 374 352 337 350 340 347 344 326 308 303 284 280 277 248 248 226 217 228 228 227 224 218 225 222 220 228 220 217 212 202 198 200 199 193 199 199 194 193 192 194 196 199 201 202 204 210 209 213 216 228 236 253
489 450 375 350 336 346 339 337 339 309 308 291 282 281 279 257 238 223 229 223 231 229 221 224 227 220 222 229 218 220 215 206 202 197 194 199 196 196 195 194 195 196 196 199 197 203 203 205 209 205 211 216 219 232
486 505 375 349 334 348 328 323 332 308 309 301 268 298 266 261 233 233 234 226 232 234 222 226 228 219 220 231 221 218 218 213 203 201 193 194 195 198 198 199 194 193 194 196 201 198 202 201 209 205 207 206 215 217
493 505 370 346 331 345 326 325 328 305 316 283 279 283 272 260 245 244 236 237 229 235 226 229 217 220 226 235 224 220 219 218 211 202 199 194 195 194 196 198 197 199 199 200 200 197 197 200 203 207 206 207 209 214
493 492 398 348 328 339 331 321 309 300 311 305 288 282 268 260 251 250 243 239 235 226 228 227 222 225 235 235 227 220 218 221 216 213 201 200 199 197 195 196 197 196 196 201 202 200 202 201 202 195 205 204 209 211
488 485 486 350 327 329 335 325 312 289 296 297 296 282 269 260 260 246 248 241 240 240 237 229 228 235 238 235 230 222 217 219 222 220 216 206 197 198 198 196 195 195 195 195 196 200 200 200 200 205 210 204 203 206
469 473 476 357 330 323 332 321 314 305 289 283 282 289 280 276 261 255 252 253 251 248 238 237 235 236 242 234 228 227 220 217 218 223 220 217 214 205 201 198 197 200 199 197 195 195 197 201 204 207 208 211 205 203
477 467 467 456 340 327 332 327 316 308 303 290 282 285 275 270 272 270 260 260 258 252 249 237 242 245 242 235 227 229 226 221 219 219 220 223 220 218 215 212 206 202 202 200 202 201 204 209 206 205 211 208 206 210

GFSWCAN_2pvu_pres_279.txt.gz
Presure
250 237 256 263 263 270 262 243 251 248 235 232 247 237 235 237 241 232 229 222 184 217 186 216 216 215 216 211 227 219 227 219 219 236 228 218 217 221 235 233 240 226 243 257 272 267 259 259 268 264 262 302 161 298
257 253 246 250 264 255 247 256 257 262 242 239 238 241 233 236 236 240 239 219 219 219 216 222 226 142 211 179 214 213 151 225 227 217 233 218 244 240 235 228 231 262 257 269 259 237 251 255 262 258 296 290 308 312
252 252 255 232 242 257 254 252 250 247 253 254 252 254 248 240 244 230 242 156 218 219 206 220 222 223 214 237 155 239 231 243 238 228 221 238 207 246 240 261 257 257 266 264 250 242 251 257 247 283 290 299 263 345
267 244 254 241 240 249 247 248 245 217 244 265 251 246 235 237 238 238 235 237 242 241 228 230 191 181 223 210 225 215 229 225 229 215 192 239 238 244 240 263 270 268 262 254 240 217 245 243 291 289 295 265 327 390
292 278 265 259 242 234 234 244 243 241 242 249 245 247 247 244 243 240 240 232 236 241 237 233 237 230 179 236 233 221 160 211 234 241 241 243 278 267 273 208 255 252 252 244 242 247 235 292 278 282 275 267 334 409
285 292 286 279 244 279 234 253 238 229 253 246 251 243 254 246 248 249 259 249 244 233 231 238 217 230 232 227 138 235 241 182 249 244 195 285 275 264 260 256 243 245 248 237 241 236 278 282 113 282 264 295 325 416
272 268 296 268 285 272 247 274 251 259 295 224 237 252 225 236 249 245 249 250 250 253 250 247 242 244 237 239 254 135 252 228 240 299 219 268 261 257 246 247 249 246 236 234 231 231 291 282 267 270 255 280 309 441
305 284 284 267 257 270 288 264 264 275 242 272 247 241 243 249 262 253 248 254 254 254 254 259 267 257 260 250 256 285 283 203 150 275 201 255 247 245 242 245 247 236 245 234 224 273 254 273 261 265 250 259 284 352
340 324 310 292 271 288 263 283 264 270 255 270 264 251 287 293 264 261 224 231 260 261 262 251 302 297 248 248 225 259 262 270 262 252 246 242 239 242 248 245 237 235 240 223 247 312 285 268 268 261 221 260 280 284
338 343 330 310 311 292 278 283 261 265 273 277 253 253 278 248 254 288 292 258 295 288 237 236 245 299 298 290 279 268 267 254 242 243 239 237 241 244 241 234 232 247 224 235 298 317 283 268 273 265 246 230 268 247
382 345 342 357 325 297 291 283 285 258 261 264 268 265 270 270 273 275 263 274 274 279 270 282 286 281 275 264 258 255 245 250 251 238 240 241 241 236 234 231 242 227 223 322 294 327 287 274 263 259 247 237 230 262
276 328 358 331 391 330 318 313 295 280 276 276 266 268 273 280 275 268 263 268 267 261 255 254 276 269 255 251 249 244 245 243 243 234 238 238 234 232 235 240 227 224 320 320 296 334 285 254 258 253 245 237 241 238
282 279 298 363 337 361 386 375 319 295 275 288 259 261 276 274 279 280 272 253 272 241 265 260 259 246 244 239 246 248 250 244 233 240 236 232 228 241 234 225 214 316 307 301 310 361 281 255 270 259 255 238 248 260
266 288 279 297 361 332 346 375 366 309 305 288 278 287 279 287 248 244 258 274 237 239 253 256 251 247 240 242 243 245 246 242 240 234 228 225 236 230 223 301 315 306 329 331 291 329 276 259 256 275 259 268 237 246
260 271 292 275 359 347 318 350 355 374 321 334 308 278 283 256 286 268 250 258 255 261 226 247 238 245 240 240 238 242 249 242 231 227 225 230 223 220 233 256 313 303 306 320 286 316 305 270 276 255 263 257 245 248
271 260 285 291 279 363 332 326 342 352 386 319 324 326 303 278 263 263 263 264 282 255 266 233 249 245 241 240 241 250 245 233 226 222 225 221 213 252 310 188 313 320 325 304 314 318 330 292 275 265 267 271 243 247
277 262 272 295 278 343 345 329 333 344 359 392 330 341 322 319 292 289 254 269 261 262 265 246 220 249 240 243 253 242 233 226 223 222 216 216 205 238 206 290 327 324 323 307 300 298 301 306 315 304 306 315 282 267
280 261 267 304 288 281 356 337 331 341 345 360 393 334 305 297 282 283 291 264 276 272 260 250 225 253 244 251 244 235 224 221 225 216 211 202 226 228 234 242 250 259 272 306 310 315 314 308 302 294 292 293 294 299
279 267 266 311 296 283 370 350 340 328 339 336 360 395 314 304 301 271 292 267 286 261 270 250 229 227 253 245 239 223 222 217 219 212 202 209 215 222 225 224 227 235 238 243 249 252 260 282 293 317 324 308 308 310
280 270 270 310 293 346 380 359 343 325 330 333 343 362 368 305 298 288 282 294 288 277 268 243 234 232 246 239 228 223 218 225 213 208 204 211 205 216 215 216 221 224 224 224 225 227 228 245 258 281 300 300 321 313
278 271 268 308 284 421 391 359 340 322 320 328 336 342 357 376 307 290 300 297 295 284 253 241 237 248 244 240 224 223 219 222 212 201 208 215 208 214 211 214 215 216 220 220 230 235 234 231 232 250 277 302 295 317
279 261 277 308 296 424 397 359 332 311 316 334 339 348 367 377 389 313 296 310 310 270 246 239 243 248 239 230 225 219 223 218 210 204 206 192 203 205 206 212 215 216 215 215 214 213 219 226 230 235 247 279 299 295
278 264 279 302 301 431 380 355 325 319 329 341 340 354 369 384 405 258 303 321 271 259 244 242 242 244 237 226 224 217 222 217 207 203 204 192 205 201 206 201 201 201 170 202 208 208 211 213 215 224 232 239 269 267
279 260 319 294 295 428 380 346 320 326 344 343 347 354 327 377 387 255 273 265 261 252 249 243 244 237 231 222 220 221 220 219 209 203 204 194 203 193 200 196 202 205 203 205 204 204 207 212 210 214 216 225 235 249
270 267 315 286 292 439 386 338 326 340 344 339 342 352 362 369 378 407 325 275 261 249 232 243 245 236 225 220 222 224 220 219 212 205 204 194 204 196 199 201 201 207 205 202 201 201 203 204 211 211 212 215 217 226
262 259 306 288 412 458 389 332 336 346 339 338 346 354 359 368 373 372 313 267 256 244 237 245 244 234 224 222 226 222 222 218 219 207 206 199 199 202 203 197 198 194 199 198 195 197 200 203 203 206 211 210 212 218
261 292 299 287 362 463 394 329 344 343 338 338 342 346 354 363 306 318 275 254 255 245 239 229 244 227 226 223 228 222 219 221 218 213 207 201 198 197 192 197 203 194 194 194 195 194 201 202 202 202 197 208 208 212
265 309 293 290 526 464 396 335 345 345 335 336 335 339 350 353 291 276 258 250 249 241 242 247 240 222 224 222 227 222 216 223 217 215 213 208 203 200 201 197 196 199 199 196 195 194 195 195 198 197 200 202 205 208
270 302 293 282 549 467 434 338 346 347 333 332 336 338 339 333 297 296 258 251 244 251 239 248 229 227 224 226 224 224 218 225 222 220 219 214 210 202 201 201 198 199 197 197 200 199 200 196 202 198 202 201 198 203
277 304 287 323 493 538 442 336 343 339 337 334 334 338 319 300 293 269 258 252 242 249 251 239 225 227 226 226 217 220 217 219 226 222 220 219 213 205 203 201 195 195 196 195 198 198 201 202 204 201 196 201 200 203
292 306 281 491 477 488 449 341 339 341 341 339 335 326 284 280 282 273 262 252 252 241 245 232 234 228 229 224 223 218 223 220 222 227 223 222 217 214 209 206 203 197 196 197 198 198 199 195 199 196 201 196 198 202
309 295 463 509 482 487 458 375 337 347 345 346 338 325 297 275 293 274 263 251 251 244 236 234 237 237 228 227 224 224 229 227 222 223 230 223 222 218 216 213 209 203 201 201 201 200 197 198 199 198 194 194 197 203
291 442 498 477 489 476 471 418 346 351 343 339 334 329 323 289 290 286 267 256 251 257 249 240 238 239 235 230 225 222 225 229 223 217 222 232 227 221 218 218 217 215 211 206 201 200 199 197 198 200 198 200 202 208

GFSWCAN_2pvu_pres_285.txt.gz
Presure
278 297 293 274 264 247 237 232 235 244 206 238 234 216 220 195 191 191 196 196 198 195 171 186 182 185 155 160 166 173 184 169 178 176 180 179 184 198 199 211 226 205 224 237 236 237 232 247 257 253 257 255 258 290
279 255 291 307 289 263 258 248 240 245 250 245 239 243 242 232 228 212 214 193 195 175 194 227 194 194 188 170 182 181 182 181 148 184 180 176 186 238 233 244 242 230 231 236 232 152 206 250 250 252 251 258 295 277
240 270 209 252 284 290 286 262 253 241 242 239 206 252 241 243 244 243 228 233 252 260 209 191 186 143 193 176 210 185 190 189 185 192 244 246 259 278 248 240 240 230 186 235 239 235 241 247 246 253 219 257 287 269
266 247 247 259 269 241 264 283 287 281 262 252 251 251 253 252 256 250 250 244 239 240 239 223 185 265 260 261 254 246 247 240 253 250 263 236 242 243 143 239 231 225 180 241 189 239 244 240 185 265 185 289 269 261
313 270 261 244 243 252 258 265 162 270 302 276 256 255 257 255 258 254 250 248 245 237 248 199 238 216 249 259 245 245 253 244 244 150 239 171 231 227 161 234 261 245 228 213 233 235 237 241 248 287 294 278 263 245
308 315 306 297 241 267 224 243 257 275 245 254 178 283 288 280 278 272 262 253 260 259 251 261 254 249 239 238 254 243 242 246 242 248 252 197 242 250 239 231 141 241 195 243 238 241 249 256 295 270 281 269 249 248
316 308 300 302 299 263 244 235 265 252 267 262 263 249 255 253 274 272 277 277 270 276 258 249 243 248 237 233 254 250 244 239 238 230 237 234 231 179 232 235 221 181 225 241 255 248 269 299 283 282 274 272 246 236
337 319 320 298 295 285 284 248 251 257 246 251 256 225 220 260 251 267 260 255 266 259 266 247 254 260 249 239 235 239 232 238 226 238 239 235 237 142 187 181 236 225 240 248 267 288 275 282 277 270 271 248 247 226
282 339 329 314 302 299 317 290 283 252 237 237 245 240 225 240 199 239 260 264 277 256 189 266 251 250 252 241 234 232 239 253 245 247 240 227 239 240 235 237 160 153 247 253 276 285 283 271 268 269 250 256 226 256
282 267 364 334 315 308 298 307 257 282 294 297 276 234 226 259 252 242 256 241 259 259 249 251 242 244 248 248 232 236 239 240 248 244 234 248 241 243 262 252 239 235 257 250 284 273 268 266 269 250 255 228 275 324
315 284 262 289 361 331 310 307 307 296 292 292 294 283 263 278 287 289 237 239 249 240 232 246 246 254 245 247 247 243 239 242 251 244 249 258 245 248 251 262 271 319 295 272 268 267 265 263 250 247 254 328 319 342
333 322 285 265 275 285 369 322 316 309 305 304 300 292 273 270 273 285 288 271 276 267 239 258 235 240 240 239 245 244 235 229 241 233 243 231 246 246 287 301 298 277 263 265 262 264 251 248 249 250 332 304 322 313
317 328 321 290 268 263 285 276 394 348 313 314 303 294 288 288 280 263 266 277 268 279 269 260 270 222 229 233 228 236 242 237 303 321 304 306 303 308 296 280 267 261 262 263 250 247 245 309 347 333 325 340 323 335
325 310 320 316 299 274 257 277 288 272 406 376 332 310 310 301 294 294 256 258 269 280 279 273 281 272 288 283 278 288 290 288 285 301 294 294 285 281 271 265 258 262 253 244 241 276 332 337 314 305 308 328 333 319
341 321 313 317 314 291 284 260 268 289 291 273 393 387 341 298 298 289 280 283 259 270 274 274 275 281 288 285 280 289 266 271 266 278 277 278 274 262 257 258 259 249 238 239 257 328 330 326 323 321 317 313 304 317
295 332 314 315 311 303 290 282 276 263 284 306 269 282 398 361 327 301 296 290 290 260 249 270 278 280 284 267 275 265 256 271 270 270 277 267 255 252 257 254 246 235 231 240 251 258 263 275 287 294 301 306 305 317
269 338 325 305 312 307 290 288 288 261 259 283 297 263 283 391 360 333 327 306 297 289 287 273 283 272 276 281 264 264 252 264 258 267 263 248 247 253 252 245 233 228 233 240 239 228 237 229 273 286 277 280 309 302
262 282 330 324 312 301 289 291 286 277 256 260 284 304 270 277 346 357 340 326 324 308 300 291 289 287 292 277 279 273 265 258 257 259 244 238 249 249 245 231 227 225 230 229 224 218 223 234 235 254 274 267 268 312
255 268 336 324 317 305 285 288 285 281 257 259 277 307 302 272 291 330 348 336 360 349 326 298 296 297 301 276 263 269 252 255 245 239 236 244 241 248 231 227 221 225 217 218 215 230 225 224 225 227 233 266 262 268
257 265 275 327 323 306 288 277 283 284 273 260 270 318 303 283 275 351 350 338 327 335 349 333 311 304 288 283 265 267 258 258 249 235 234 240 248 236 227 218 223 216 217 218 222 219 213 216 216 214 217 221 255 265
252 261 272 340 321 311 291 284 287 289 282 258 268 316 298 276 423 371 347 332 331 342 365 358 341 314 313 258 283 264 247 247 238 235 237 243 241 227 221 222 217 217 216 218 208 212 208 211 205 210 212 214 217 244
251 261 273 345 326 319 292 286 290 287 273 259 266 327 286 287 413 366 344 340 336 339 351 375 350 339 317 252 281 252 252 250 240 233 234 246 231 226 219 222 214 211 214 205 212 204 210 210 195 205 210 214 215 218
255 267 274 346 328 319 309 292 288 283 285 263 276 304 281 365 388 363 352 340 334 333 345 371 367 343 329 263 275 267 255 239 238 227 239 242 226 224 221 216 213 208 211 212 204 211 212 199 178 211 212 212 212 214
261 271 276 339 329 325 317 293 285 277 281 260 303 296 283 404 376 364 339 332 317 324 339 377 360 352 339 292 281 269 258 244 238 229 241 235 226 224 219 214 211 212 209 207 210 211 204 203 193 201 201 205 207 214
268 275 287 331 331 327 322 289 291 277 267 261 282 297 279 397 371 363 339 321 320 326 334 352 383 338 333 335 275 261 260 250 238 244 244 231 226 223 218 216 208 214 208 205 204 204 200 197 204 202 203 200 199 194
274 280 332 326 326 319 299 286 285 276 270 264 299 303 282 391 377 357 343 327 324 326 336 345 358 383 324 302 274 262 249 250 245 246 244 231 226 224 219 215 208 213 207 205 193 202 206 202 205 196 200 200 194 201
274 312 322 323 321 301 286 284 297 270 266 262 282 321 282 397 377 352 334 319 319 325 328 334 346 359 380 275 279 294 252 254 252 240 246 221 226 224 217 213 211 211 204 204 186 203 202 191 207 205 202 200 195 204
303 314 328 318 290 286 280 285 278 266 306 269 273 303 282 404 369 354 346 331 326 327 330 341 352 361 380 402 288 300 264 253 251 241 246 227 223 222 217 215 211 206 205 204 204 205 203 193 196 205 203 199 193 197
307 324 315 299 275 277 285 317 312 270 279 264 269 289 299 279 376 364 357 341 336 342 349 356 371 397 398 412 291 285 266 261 250 245 239 225 224 222 222 217 215 207 212 204 203 200 203 200 197 196 203 202 199 197
323 332 300 271 278 297 295 289 281 267 267 304 287 284 307 284 343 368 351 344 337 351 356 361 366 384 395 281 302 277 266 260 250 242 237 227 226 225 227 223 217 214 206 206 204 203 199 200 201 200 196 198 200 195
323 304 278 275 275 276 281 286 272 263 279 299 282 285 298 293 352 373 356 336 346 350 347 347 373 382 375 281 291 272 263 254 251 241 241 227 232 228 225 224 217 214 206 203 204 206 204 201 197 199 194 193 195 196
286 271 271 274 275 278 284 274 267 256 311 297 291 303 296 284 360 377 360 349 345 346 351 365 363 370 362 300 288 273 264 257 252 242 245 236 227 228 223 224 217 213 212 209 205 205 205 204 200 198 195 196 199 200
268 268 271 269 269 273 282 262 260 325 305 294 292 299 296 280 471 377 355 347 355 343 356 360 354 367 377 291 282 268 257 258 253 244 247 240 230 223 225 219 222 215 215 216 214 210 205 204 205 205 204 202 202 201

GFSWCAN_2pvu_pres_291.txt.gz
Presure
251 252 242 239 240 237 233 229 229 229 238 243 201 247 223 196 196 194 186 135 180 179 180 177 174 171 176 183 182 174 178 176 187 184 184 184 182 177 191 187 184 187 174 186 168 186 199 218 228 208 137 208 241 239
243 242 245 240 235 233 236 228 216 216 225 228 238 207 197 202 207 221 193 187 194 194 186 186 195 130 163 159 167 182 179 179 177 165 184 177 162 184 176 186 196 195 169 213 201 204 182 192 195 177 202 246 139 247
250 250 245 245 238 233 231 226 228 224 231 220 231 235 240 218 208 204 206 207 206 211 250 215 216 188 190 201 188 160 188 193 223 191 191 192 195 181 188 180 202 190 181 209 179 189 199 205 215 267 204 244 258 197
266 260 241 236 235 229 233 231 230 229 226 225 224 226 225 229 229 238 246 231 226 200 203 208 208 166 184 185 208 207 209 210 210 208 215 212 207 203 209 207 201 199 200 207 203 235 231 263 270 207 254 266 257 252
278 265 261 239 236 234 232 232 221 232 234 228 228 229 230 233 228 226 228 239 256 255 259 253 261 230 236 215 167 166 191 195 194 192 193 204 187 193 194 199 220 238 234 268 278 294 290 207 257 248 241 257 250 255
281 301 265 263 256 245 235 231 228 238 231 228 231 228 230 229 231 248 254 240 235 236 244 205 242 253 248 231 233 262 246 242 242 239 237 234 241 264 260 256 251 259 264 271 261 269 270 255 249 246 256 123 254 257
319 292 291 278 260 267 257 254 253 238 242 246 236 234 236 235 243 253 236 235 250 241 237 239 243 236 233 234 244 236 239 236 241 241 239 261 250 245 245 244 264 265 280 260 254 250 258 249 244 245 270 255 229 259
374 359 312 276 301 271 255 260 254 244 251 245 246 236 241 247 233 233 224 230 231 238 238 234 235 230 238 250 234 240 238 245 245 247 248 241 254 258 272 266 265 252 262 254 247 245 258 242 236 187 261 259 257 260
348 325 366 368 309 287 292 265 255 238 238 234 239 233 238 236 232 240 229 228 228 231 235 258 240 240 240 237 243 231 234 232 242 226 241 253 258 248 261 252 245 259 255 256 247 251 247 251 246 254 263 272 267 255
369 347 329 313 374 363 357 303 286 256 252 255 236 243 234 229 228 236 236 235 232 233 229 242 252 249 254 252 255 258 255 260 275 254 259 255 281 262 268 261 271 284 272 260 255 253 264 257 253 261 277 291 274 307
373 369 351 324 304 296 332 355 348 334 308 255 273 255 265 247 282 291 290 268 277 265 249 268 267 268 262 265 287 293 296 280 292 284 280 281 278 264 258 251 263 271 259 273 255 260 277 273 262 281 260 279 293 277
261 360 360 355 336 311 290 277 374 347 337 340 329 308 274 265 290 287 261 283 281 275 279 279 279 284 281 275 230 255 235 289 260 255 232 247 273 276 267 263 274 272 262 268 267 272 269 263 269 264 307 283 271 269
253 268 355 347 350 343 325 301 284 365 379 353 339 330 322 325 323 314 298 264 266 278 277 270 270 267 270 249 248 262 251 254 254 276 269 264 265 268 266 263 260 267 260 250 263 276 265 266 263 297 275 264 262 259
252 253 264 347 344 333 342 332 311 290 277 300 370 353 336 325 323 314 309 312 308 302 308 318 298 275 270 262 258 260 262 261 267 258 247 248 243 242 229 246 245 256 261 258 256 258 254 225 289 271 261 253 249 249
257 243 247 260 353 342 329 332 334 323 299 280 269 284 364 381 350 327 313 312 313 310 308 292 297 304 294 299 305 309 289 275 268 248 246 249 253 253 240 259 271 261 253 252 274 264 305 285 267 258 251 244 239 240
253 253 243 251 258 297 341 328 322 327 325 309 285 272 267 289 292 318 371 346 332 319 313 308 301 296 297 294 290 293 292 286 288 296 289 285 284 280 276 270 270 276 288 273 304 298 279 262 254 250 242 237 235 231
250 245 253 242 247 264 277 344 331 315 315 315 311 304 284 275 268 292 298 295 295 384 353 333 322 313 310 305 299 286 287 284 262 288 280 285 283 277 283 272 281 277 277 276 292 275 261 248 248 238 236 233 226 228
245 249 248 254 240 246 257 270 308 334 317 310 307 309 306 296 293 280 267 266 292 307 302 288 339 362 332 312 296 294 295 287 282 292 276 265 277 267 264 269 273 275 282 284 275 260 248 244 236 235 232 225 226 222
242 243 240 246 249 257 251 257 266 273 342 319 303 302 299 293 291 288 293 289 262 261 281 299 306 289 270 318 343 324 304 302 297 290 282 263 273 269 267 263 272 276 265 273 258 249 239 231 234 229 224 225 216 219
241 244 249 239 249 250 263 256 257 268 274 327 340 311 295 292 290 292 297 298 292 269 260 265 282 311 287 266 271 347 331 320 312 310 302 278 267 267 264 268 269 262 267 257 249 239 228 234 226 226 224 217 213 216
241 240 243 243 246 239 246 263 252 259 270 273 363 339 322 302 291 287 292 303 300 281 262 257 264 299 304 288 264 266 300 328 319 310 313 292 267 265 264 272 263 254 260 248 241 227 231 224 224 221 218 214 213 212
240 240 242 248 246 253 259 244 262 258 270 276 304 349 335 330 302 291 282 291 288 282 273 255 261 296 332 286 272 267 296 322 331 315 313 312 269 263 263 268 254 262 250 244 236 227 228 223 222 218 215 209 212 206
239 244 245 241 246 253 254 260 258 263 278 295 298 335 333 331 332 298 285 285 277 295 287 256 264 314 317 285 271 264 291 354 349 330 319 320 275 265 264 259 265 257 244 241 223 228 217 223 218 217 215 207 207 207
242 246 250 246 240 260 249 264 266 264 285 295 292 346 336 339 341 312 286 286 280 288 276 257 273 307 289 281 269 285 369 367 356 347 328 328 275 264 266 261 260 251 239 240 227 227 216 221 217 217 213 206 207 204
246 249 243 253 255 245 255 257 265 271 288 311 318 341 330 328 319 290 288 290 277 273 263 251 322 289 269 306 411 384 366 363 347 343 337 327 275 268 265 263 259 247 240 237 227 223 218 220 217 215 214 205 208 202
250 249 251 249 254 249 264 263 269 286 327 302 333 333 313 302 291 287 320 279 272 275 258 314 288 280 478 432 394 369 354 353 342 336 371 333 273 271 263 263 258 244 240 234 227 218 222 219 216 214 214 203 211 202
252 253 250 257 260 251 269 270 279 297 319 287 333 332 299 288 287 293 289 274 274 272 265 330 284 442 439 408 379 359 348 347 338 328 358 369 278 277 265 262 256 248 242 229 228 220 223 221 216 213 214 205 208 210
257 256 258 263 249 268 273 270 289 343 310 341 336 315 283 279 311 287 314 287 275 270 263 323 288 425 422 393 370 357 347 339 331 327 321 380 277 276 265 258 257 251 242 232 229 222 223 224 216 212 214 210 205 212
258 254 256 258 264 279 277 284 294 311 300 328 324 292 276 279 289 291 295 278 270 306 276 304 289 278 406 376 361 288 332 334 332 331 335 366 291 276 263 264 261 253 243 243 234 229 226 226 216 213 214 214 207 210
255 261 264 275 287 291 274 313 290 307 283 341 304 283 277 285 283 287 292 274 264 313 294 284 298 278 392 371 343 333 313 326 323 334 349 398 325 279 270 269 265 259 248 248 236 229 227 226 218 215 214 215 208 205
269 277 282 287 289 288 289 297 328 294 299 342 291 274 280 282 281 284 281 273 261 321 300 294 301 285 284 378 362 344 334 325 324 336 289 400 381 283 273 256 266 263 250 247 238 230 227 225 219 217 212 216 210 207
272 270 270 274 285 295 316 322 310 278 329 336 285 275 275 274 273 274 277 263 262 324 305 293 298 294 281 335 364 327 323 318 329 331 343 365 385 282 277 268 264 266 254 250 241 234 226 225 224 221 215 214 215 210
265 267 283 288 305 307 317 299 289 278 329 329 281 272 273 273 272 278 276 259 257 353 317 300 302 296 285 275 376 337 325 323 312 324 328 342 356 352 279 274 265 270 261 251 244 238 228 227 225 225 223 217 214 215